Regional Weather Roundup
Issued by NWS

Home | Current Version | Previous Version | Text Only | Print | Product List | Glossary Off
Versions: 1 2 3 4 5 6 7 8 9 10 11 12 13 14 15 16 17 18 19 20 21 22 23 24 25 26 27 28 29 30 31 32 33 34 35 36 37 38 39 40 41 42 43 44 45 46 47 48 49 50

000
ASUS43 KBIS 191710
RWRND

NORTH DAKOTA REGIONAL WEATHER ROUNDUP
NATIONAL WEATHER SERVICE BISMARCK ND
1100 AM CST MON FEB 19 2018

NOTE: "FAIR" INDICATES FEW OR NO CLOUDS BELOW 12,000 FEET WITH NO
SIGNIFICANT WEATHER AND/OR OBSTRUCTIONS TO VISIBILITY.


NDZ001>003-009>011-017-191800-
NORTHWEST NORTH DAKOTA

CITY           SKY/WX    TMP DP  RH WIND       PRES   REMARKS
WILLISTON      CLOUDY    -5  -9  83 CALM      30.21S
MINOT          CLOUDY     1  -9  62 CALM      30.22R
MINOT AFB      MOSUNNY   -1 -12  60 CALM      30.21S
$$

NDZ018>021-031>035-040>046-191800-
SOUTHWEST NORTH DAKOTA

CITY           SKY/WX    TMP DP  RH WIND       PRES   REMARKS
BISMARCK       PTSUNNY    4  -5  66 NE10      30.19F WCI -11
DICKINSON      CLOUDY     3 -11  52 NE9       30.10F WCI -12
GARRISON         N/A      1  -7  68 CALM      30.21R
HETTINGER ARPT FLURRIES   2  -7  66 N10       30.08S WCI -14
$$

NDZ004>008-012>016-024-026-027-054-191800-
NORTHEAST NORTH DAKOTA

CITY           SKY/WX    TMP DP  RH WIND       PRES   REMARKS
GRAND FORKS    CLOUDY     2  -6  69 N17       30.27F WCI -18
GRND FRKS AFB  FAIR       2  -7  64 NE16      30.26F WCI -17
DEVILS LAKE    FAIR      -2 -10  69 N6        30.25S WCI -14
$$

NDZ022-023-025-028>030-036>039-047>053-191800-
SOUTHEAST NORTH DAKOTA

CITY           SKY/WX    TMP DP  RH WIND       PRES   REMARKS
FARGO          FAIR       8   0  69 N17       30.18F WCI -10
JAMESTOWN      CLOUDY     6  -4  63 NE18      30.17S WCI -13
$$




USA.gov is the U.S. government's official web portal to all federal, state and local government web resources and services.